sat.trackr.live / text

‹ back to catalog

AEROCUBE 18A

NORAD 63220 · 2025-052L

PAYLOAD ACTIVE UNKNOWN

§ Identity

Operator
Country
US
Launch date
2025-03-15
Launch site
AFWTR
Launch vehicle
Mass (kg)
RCS (m²)

External: N2YO · Heavens-Above · Gunter

§ Orbital elements

Epoch: 2026-09-22T16:02:09.541536Z

Period
94.40 min
Inclination
97.3820°
Eccentricity
0.0005296
Mean motion
15.25399365 rev/d
Perigee alt
485.9 km
Apogee alt
493.2 km
Semi-major
6,867.7 km
B*
1.6755e-4
RAAN
157.8775°
Arg perigee
124.5628°
Mean anomaly
235.6111°
Rev number
8,475

§ Raw data

AEROCUBE 18A1 63220U 25052L   26265.66816599  .00004160  00000+0  16755-3 0  99952 63220  97.3820 157.8775 0005296 124.5628 235.6111 15.25399365 84755

JSON: /api/v1/satellites/63220 · /tle

For live sub-satellite position, see the globe view (requires WebGL).

§ Visibility from observer

Set your observer location to see the next 7 days of passes ≥ 10°. The values pass through the URL so the page stays shareable.

No JS? Fill the form by hand. The geolocation button needs JavaScript.

§ Radio — SatNOGS DB

ModeDescriptionDownlinkUplink
OQPSK Mode U - OQPSK 1Mbps 2.225 GHz

1 transmitter · refreshed weekly from db.satnogs.org